TimeEDT,TemperatureF,Dew PointF,Humidity,Sea Level PressureIn,VisibilityMPH,Wind Direction,Wind SpeedMPH,Gust SpeedMPH,PrecipitationIn,Events,Conditions,WindDirDegrees,DateUTC
12:54 AM,68.0,66.9,96,29.97,1.5,NE,3.5,-,0.01,,Light Drizzle,40,2012-10-03 04:54:00
1:54 AM,66.9,66.0,97,29.98,1.5,NE,4.6,-,0.00,,Overcast,40,2012-10-03 05:54:00
2:54 AM,66.9,66.0,97,29.98,1.5,Calm,Calm,-,N/A,,Overcast,0,2012-10-03 06:54:00
3:54 AM,66.9,66.0,97,29.99,1.0,Calm,Calm,-,N/A,,Overcast,0,2012-10-03 07:54:00
4:54 AM,66.9,66.0,97,30.00,1.5,NE,3.5,-,N/A,,Overcast,50,2012-10-03 08:54:00
5:54 AM,66.9,66.0,97,30.01,1.5,NE,3.5,-,N/A,,Overcast,50,2012-10-03 09:54:00
6:54 AM,66.9,66.0,97,30.02,1.0,Calm,Calm,-,0.00,Rain,Light Rain,0,2012-10-03 10:54:00
7:17 AM,66.2,66.2,100,30.03,0.5,NE,3.5,-,0.00,Rain,Light Rain,40,2012-10-03 11:17:00
7:26 AM,66.2,66.2,100,30.03,0.5,Calm,Calm,-,0.00,Fog,Fog,0,2012-10-03 11:26:00
7:54 AM,66.9,66.0,97,30.04,0.5,Calm,Calm,-,0.00,Fog,Fog,0,2012-10-03 11:54:00
8:28 AM,68.0,66.2,94,30.05,0.2,Calm,Calm,-,N/A,Fog,Fog,0,2012-10-03 12:28:00
8:54 AM,68.0,66.9,96,30.04,0.2,ENE,3.5,-,N/A,Fog,Fog,70,2012-10-03 12:54:00
9:20 AM,69.8,68.0,94,30.05,0.5,Calm,Calm,-,N/A,Fog,Fog,0,2012-10-03 13:20:00
9:54 AM,71.1,69.1,93,30.05,0.5,Calm,Calm,-,N/A,,Overcast,0,2012-10-03 13:54:00
9:58 AM,71.6,69.8,94,30.05,1.0,Calm,Calm,-,N/A,,Overcast,0,2012-10-03 13:58:00
10:30 AM,73.4,71.6,94,30.05,2.5,Calm,Calm,-,N/A,,Overcast,0,2012-10-03 14:30:00
10:46 AM,73.4,71.6,94,30.05,3.0,WSW,5.8,-,N/A,,Overcast,240,2012-10-03 14:46:00
10:54 AM,73.9,71.1,91,30.06,3.0,West,6.9,-,N/A,,Overcast,260,2012-10-03 14:54:00
11:54 AM,75.0,72.0,90,30.06,4.0,WSW,6.9,-,N/A,,Overcast,250,2012-10-03 15:54:00
12:12 PM,75.2,71.6,89,30.05,4.0,SW,5.8,-,N/A,,Overcast,230,2012-10-03 16:12:00
12:48 PM,75.2,71.6,89,30.05,4.0,WSW,4.6,-,N/A,,Overcast,250,2012-10-03 16:48:00
12:54 PM,77.0,71.1,82,30.06,4.0,WSW,8.1,-,N/A,,Haze,240,2012-10-03 16:54:00
1:03 PM,77.0,71.6,83,30.05,6.0,WSW,6.9,-,N/A,,Haze,240,2012-10-03 17:03:00
1:22 PM,78.8,71.6,78,30.05,7.0,WSW,5.8,-,N/A,,Mostly Cloudy,240,2012-10-03 17:22:00
1:30 PM,78.8,71.6,78,30.05,7.0,West,6.9,-,N/A,,Mostly Cloudy,260,2012-10-03 17:30:00
1:49 PM,78.8,71.6,78,30.04,8.0,SW,6.9,-,N/A,,Mostly Cloudy,230,2012-10-03 17:49:00
1:54 PM,80.1,71.1,74,30.04,8.0,WSW,9.2,-,N/A,,Mostly Cloudy,240,2012-10-03 17:54:00
2:36 PM,80.6,68.0,65,30.04,10.0,SW,11.5,-,N/A,,Mostly Cloudy,230,2012-10-03 18:36:00
2:54 PM,80.1,69.1,69,30.04,10.0,WSW,10.4,-,N/A,,Mostly Cloudy,250,2012-10-03 18:54:00
3:54 PM,81.0,68.0,65,30.04,10.0,WSW,11.5,-,N/A,,Mostly Cloudy,250,2012-10-03 19:54:00
4:54 PM,80.1,69.1,69,30.05,10.0,SW,6.9,-,N/A,,Overcast,220,2012-10-03 20:54:00
5:54 PM,80.1,69.1,69,30.06,10.0,SW,9.2,-,N/A,,Overcast,230,2012-10-03 21:54:00
6:54 PM,78.1,69.1,74,30.07,10.0,WNW,8.1,-,N/A,,Overcast,290,2012-10-03 22:54:00
7:54 PM,75.9,68.0,76,30.10,10.0,NW,5.8,-,N/A,,Overcast,310,2012-10-03 23:54:00
8:54 PM,73.9,66.9,79,30.11,10.0,NNW,5.8,-,N/A,,Overcast,340,2012-10-04 00:54:00
9:02 PM,73.4,66.2,78,30.11,8.0,NNW,3.5,-,N/A,,Overcast,330,2012-10-04 01:02:00
9:54 PM,73.9,66.0,76,30.12,7.0,WNW,3.5,-,N/A,,Overcast,300,2012-10-04 01:54:00
10:54 PM,71.1,66.9,87,30.12,8.0,Calm,Calm,-,N/A,,Overcast,0,2012-10-04 02:54:00
11:54 PM,71.1,66.0,84,30.12,7.0,Calm,Calm,-,N/A,,Overcast,0,2012-10-04 03:54:00